Marianna, WV

6:29 PM EDT on September 25, 2016 (GMT -0400)
Pineville

Weather History for KI16 - March, 2014

Change the Weather History Date:

Tuesday, March 18, 2014

  Actual Average (KBKW) Record (KBKW)
Temperature  
Mean Temperature 44 °F 42 °F  
Max Temperature 55 °F 52 °F 81 °F (1927)
Min Temperature 33 °F 33 °F 5 °F (1902)
Degree Days  
Heating Degree Days 21 22  
Month to date heating degree days 450  
Since 1 July heating degree days 4451  
Cooling Degree Days 0 0  
Month to date cooling degree days 0  
Year to date cooling degree days 0  
Moisture  
Dew Point 36 °F    
Average Humidity 80    
Maximum Humidity 95    
Minimum Humidity 60    
Precipitation  
Precipitation 0.00 in 0.12 in 2.53 in (1927)
Month to date precipitation 2.04  
Year to date precipitation 7.61  
Snow  
Snow 0.00 in - - ()
Month to date snowfall  
Since 1 September snowfall  
Snow Depth -    
Sea Level Pressure  
Sea Level Pressure 30.00 in    
Wind  
Wind Speed - (North)    
Max Wind Speed -    
Max Gust Speed -    
Visibility 10 miles    
Events      
T = Trace of Precipitation, MM = Missing Value Source: NWS Daily Summary

Daily Weather History Graph

Daily Weather History Graph

Search for Another Location

Airport or City:

Trip Planner

Search our weather history database for the weather conditions in past years. The results will help you decide how hot, cold, wet, or windy it might be!

Date:

Astronomy

Mar. 18, 2014 Rise Set
Actual Time 7:32 AM EDT 7:36 PM EDT
Civil Twilight 7:06 AM EDT 8:02 PM EDT
Nautical Twilight 6:36 AM EDT 8:32 PM EDT
Astronomical Twilight 6:05 AM EDT 9:03 PM EDT
Moon 9:49 PM EDT (3/18) 8:23 AM EDT (3/18)
Length of Visible Light 12h 55m
Length of Day
12h 03m
Waning Gibbous, 96% of the Moon is Illuminated
Mar 18
Waning Gibbous
Mar 23
Last Quarter
Mar 30
New
Apr 7
First Quarter
Apr 15
Full

Hourly Weather History & Observations

Time (EDT) Temp. Dew Point Humidity Pressure Visibility Wind Dir Wind Speed Gust Speed Precip Events Conditions
12:15 AM 33.8 °F 31.1 °F 90% 29.94 in 10.0 mi North - - N/A   Overcast
12:35 AM 33.8 °F 31.1 °F 90% 29.94 in 10.0 mi North - - N/A   Overcast
12:55 AM 33.4 °F 31.5 °F 92% 29.94 in 7.0 mi North - - N/A   Overcast
1:15 AM 33.4 °F 31.8 °F 94% 29.95 in 7.0 mi North - - N/A   Overcast
1:35 AM 33.3 °F 32.0 °F 95% 29.95 in 7.0 mi North - - N/A   Overcast
1:55 AM 33.4 °F 31.8 °F 94% 29.95 in 10.0 mi North - - N/A   Overcast
2:15 AM 33.8 °F 31.6 °F 92% 29.94 in 10.0 mi North - - N/A   Overcast
2:35 AM 33.8 °F 31.6 °F 92% 29.94 in 10.0 mi North - - N/A   Overcast
2:55 AM 34.0 °F 31.6 °F 91% 29.94 in 10.0 mi North - - N/A   Overcast
3:15 AM 34.2 °F 31.6 °F 90% 29.94 in 10.0 mi North - - N/A   Overcast
3:35 AM 34.3 °F 31.5 °F 89% 29.93 in 10.0 mi North - - N/A   Overcast
3:55 AM 34.7 °F 31.5 °F 88% 29.92 in 10.0 mi North - - N/A   Overcast
4:15 AM 34.7 °F 31.6 °F 89% 29.92 in 10.0 mi North - - N/A   Overcast
4:35 AM 34.7 °F 31.6 °F 89% 29.93 in 10.0 mi North - - N/A   Overcast
4:55 AM 34.7 °F 31.5 °F 88% 29.92 in 10.0 mi North - - N/A   Overcast
5:15 AM 34.7 °F 31.6 °F 89% 29.92 in 10.0 mi North - - N/A   Overcast
5:35 AM 34.7 °F 31.6 °F 89% 29.92 in 10.0 mi North - - N/A   Overcast
5:55 AM 34.7 °F 31.8 °F 89% 29.92 in 10.0 mi North - - N/A   Overcast
6:15 AM 34.9 °F 32.0 °F 89% 29.92 in 10.0 mi North - - N/A   Overcast
6:35 AM 34.9 °F 32.0 °F 89% 29.92 in 10.0 mi North - - N/A   Overcast
6:55 AM 35.1 °F 32.0 °F 89% 29.93 in 10.0 mi North - - N/A   Overcast
7:15 AM 35.1 °F 32.0 °F 89% 29.94 in 10.0 mi North - - N/A   Overcast
7:35 AM 35.6 °F 32.0 °F 87% 29.94 in 10.0 mi North - - N/A   Overcast
7:55 AM 35.6 °F 32.0 °F 87% 29.95 in 10.0 mi North - - N/A   Overcast
8:15 AM 35.8 °F 32.2 °F 87% 29.95 in 10.0 mi North - - N/A   Overcast
8:35 AM 36.0 °F 32.2 °F 86% 29.97 in 10.0 mi North - - N/A   Overcast
8:55 AM 36.1 °F 32.4 °F 86% 29.98 in 10.0 mi North - - N/A   Overcast
9:15 AM 36.1 °F 32.2 °F 86% 30.00 in 10.0 mi North - - N/A   Overcast
9:35 AM 36.5 °F 32.4 °F 85% 30.01 in 10.0 mi North - - N/A   Overcast
9:55 AM 37.0 °F 32.7 °F 84% 30.01 in 10.0 mi North - - N/A   Overcast
10:15 AM 37.6 °F 32.9 °F 83% 30.01 in 10.0 mi North - - N/A   Overcast
10:35 AM 37.8 °F 32.9 °F 83% 30.02 in 10.0 mi North - - N/A   Overcast
10:55 AM 38.5 °F 32.9 °F 80% 30.03 in 10.0 mi North - - N/A   Overcast
11:15 AM 39.2 °F 33.3 °F 79% 30.03 in 10.0 mi North - - N/A   Overcast
11:35 AM 39.4 °F 33.6 °F 80% 30.04 in 10.0 mi North - - N/A   Overcast
11:55 AM 39.7 °F 33.6 °F 79% 30.05 in 10.0 mi North - - N/A   Overcast
12:15 PM 41.2 °F 34.5 °F 77% 30.05 in 10.0 mi North - - N/A   Overcast
12:35 PM 41.9 °F 34.7 °F 76% 30.06 in 10.0 mi North - - N/A   Overcast
12:55 PM 43.0 °F 35.6 °F 75% 30.07 in 10.0 mi North - - N/A   Overcast
1:15 PM 45.0 °F 36.7 °F 73% 30.08 in 10.0 mi North - - N/A   Overcast
1:35 PM 46.4 °F 37.6 °F 71% 30.08 in 10.0 mi North - - N/A   Overcast
1:55 PM 48.0 °F 38.7 °F 70% 30.08 in 10.0 mi North - - N/A   Overcast
2:15 PM 49.1 °F 39.4 °F 69% 30.06 in 10.0 mi North - - N/A   Overcast
2:35 PM 50.0 °F 39.6 °F 67% 30.06 in 10.0 mi North - - N/A   Overcast
2:55 PM 50.9 °F 39.6 °F 65% 30.05 in 10.0 mi North - - N/A   Overcast
3:15 PM 51.8 °F 40.6 °F 66% 30.05 in 10.0 mi North - - N/A   Overcast
3:35 PM 54.5 °F 41.2 °F 61% 30.04 in 10.0 mi North - - N/A   Mostly Cloudy
3:55 PM 53.6 °F 41.2 °F 63% 30.04 in 10.0 mi North - - N/A   Mostly Cloudy
4:15 PM 54.5 °F 41.4 °F 61% 30.04 in 10.0 mi North - - N/A   Scattered Clouds
4:35 PM 54.5 °F 41.4 °F 61% 30.04 in 10.0 mi North - - N/A   Clear
4:55 PM 55.2 °F 41.9 °F 61% 30.03 in 10.0 mi North - - N/A   Clear
5:15 PM 54.9 °F 41.7 °F 61% 30.02 in 10.0 mi North - - N/A   Clear
5:35 PM 55.4 °F 41.9 °F 60% 30.02 in 10.0 mi North - - N/A   Clear
5:55 PM 54.3 °F 41.9 °F 63% 30.02 in 10.0 mi North - - N/A   Clear
6:15 PM 52.9 °F 41.5 °F 65% 30.02 in 10.0 mi North - - N/A   Clear
6:35 PM 52.7 °F 41.5 °F 66% 30.02 in 10.0 mi North - - N/A   Clear
6:55 PM 52.2 °F 41.5 °F 67% 30.01 in 10.0 mi North - - N/A   Clear
7:15 PM 51.1 °F 41.4 °F 69% 30.02 in 10.0 mi North - - N/A   Clear
7:35 PM 50.0 °F 41.0 °F 71% 30.01 in 10.0 mi North - - N/A   Clear
7:55 PM 48.7 °F 41.0 °F 75% 30.01 in 10.0 mi North - - N/A   Clear
8:15 PM 47.7 °F 40.5 °F 76% 30.01 in 10.0 mi North - - N/A   Clear
8:35 PM 46.4 °F 40.1 °F 79% 30.02 in 10.0 mi North - - N/A   Clear
8:55 PM 45.5 °F 39.7 °F 80% 30.01 in 10.0 mi North - - N/A   Clear
9:15 PM 44.8 °F 39.6 °F 82% 30.02 in 10.0 mi North - - N/A   Clear
9:35 PM 44.4 °F 39.4 °F 82% 30.03 in 10.0 mi North - - N/A   Clear
9:55 PM 44.1 °F 39.4 °F 84% 30.04 in 10.0 mi North - - N/A   Clear
10:15 PM 44.1 °F 39.6 °F 84% 30.05 in 10.0 mi North - - N/A   Clear
10:35 PM 43.9 °F 39.6 °F 85% 30.05 in 10.0 mi North - - N/A   Clear
10:55 PM 44.2 °F 40.1 °F 85% 30.04 in 10.0 mi North - - N/A   Clear
11:15 PM 44.2 °F 39.9 °F 85% 30.04 in 10.0 mi North - - N/A   Clear
11:35 PM 44.6 °F 40.1 °F 84% 30.04 in 10.0 mi North - - N/A   Clear
11:55 PM 44.8 °F 40.1 °F 84% 30.04 in 10.0 mi North - - N/A   Scattered Clouds